www.pogodaiklimat.ru

Погода и климат >> Архив погоды >> Индия >> Андхра-Прадеш >> Бапатла


ПОГОДА в Бапатле

  • Прогноз погоды в Бапатле
  • Монитор погоды в Бапатле

АРХИВ ПОГОДЫ в Бапатле

Время (UTC), дата Ветер
(напр.,м/с)
 
Видим.   Явления Облачность Т
(С)
Тd
(С)
f
(%)
Тe
(С)
Тes
(С)
Комфортность P
(гПа)
Po
(гПа)
Тmin
(С)
Tmax
(С)
R
(мм)
R24
(мм)
S
(см)
09 12.07 Ю 3 10 км 8/5 600 м
[Sc diur, vesp Ac trans]
+34.0 +24.3 57 +46 +51 опасность
перегрева
1004.6 1003.9
12 12.07 Ю 3 10 км 9/5 600 м
[Sc diur, vesp Ac As]
+31.0 +25.9 74 +46 +46 опасность
перегрева
1004.2 1003.5 +37.0
15 12.07 ЮВ 2 4000 м 6/4 600 м
[Sc diur, vesp Ac trans]
+30.6 +25.8 76 +46 +46 опасность
перегрева
1006.0 1005.3
18 12.07 Ю 2 4000 м 3/1 600 м
[Sc Ci sp]
+29.6 +25.0 76 +42 +42 опасность
перегрева
1007.7 1007.0
21 12.07 ЮВ 1 4000 м 3/1 600 м
[Sc Ci sp]
+29.4 +24.8 76 +42 +42 опасность
перегрева
1005.7 1005.0
00 13.07 Ю 2 4000 м 4/3 600 м
[Sc Ac trans]
+29.0 +24.7 78 +41 +41 опасность
перегрева
1006.2 1005.5
03 13.07 З 3 10 км 4/3 600 м
[Sc Ac trans]
+31.8 +22.7 59 +42 +46 опасность
перегрева
1008.0 1007.3 +28.7 +37.0
06 13.07 З 2 10 км 6/4 600 м
[Sc Ac trans]
+35.2 +22.4 48 +44 +55 опасность
перегрева
1007.4 1006.7
09 13.07 Ю 2 10 км 5/4 600 м
[Sc diur, vesp Ac trans]
+37.4 +24.1 47 +49 +57 опасность
перегрева
1004.4 1003.7
12 13.07 ЮЗ 3 10 км 4/4 600 м
[Sc diur, vesp]
+34.4 +27.2 66 +53 +53 опасность
перегрева
1003.7 1003.0 +38.7
15 13.07 Ю 3 4000 м 6/4 600 м
[Sc diur, vesp Ac trans Ci sp]
+31.2 +26.8 78 +49 +49 опасность
перегрева
1005.8 1005.1
18 13.07 штиль 0 4000 м 9/5 600 м
[Sc diur, vesp Ac trans Ci sp]
+30.4 +26.2 78 +46 +46 опасность
перегрева
1007.3 1006.6
21 13.07 штиль 0 4000 м гроза, ливневой дождь 10/5 600 м
[Cb cap Ac As]
+26.4 +23.7 85 +36 +36 очень
душно
1005.4 1004.7 2
00 14.07 Ю 1 4000 м гроза, ливневой дождь 10/5 600 м
[Cb cap As op]
+26.0 +23.0 84 +35 +35 очень
душно
1006.5 1005.8 4
03 14.07 З 1 4000 м в посл. час гроза 10/4 600 м
[Sc diur, vesp Ac As]
+26.6 +23.6 84 +36 +38 очень
душно
1007.5 1006.8 +25.3 +38.7 7
06 14.07 З 3 10 км {гроза} 9/3 600 м
[Sc Ac trans Ci sp]
+29.6 +26.6 84 +46 +54 опасность
перегрева
1006.6 1005.9
09 14.07 ЮЗ 2 10 км 8/4 600 м
[Sc diur, vesp Ac trans Ci sp]
+32.6 +27.3 74 +51 +58 опасность
перегрева
1004.4 1003.7
12 14.07 СВ 2 10 км гроза без осадков 8/4 600 м
[Cb cap Ac trans Ci sp]
+29.0 +26.6 87 +45 +45 опасность
перегрева
1003.8 1003.1 +33.6
15 14.07 Ю 2 4000 м зарница 9/4 600 м
[Cb cap Ac As]
+28.4 +26.1 87 +43 +43 опасность
перегрева
1004.7 1004.0
18 14.07 Ю 2 4000 м зарница 9/4 600 м
[Cb cap Ac As]
+28.4 +26.1 87 +43 +43 опасность
перегрева
1005.0 1004.3
21 14.07 З 1 4000 м гроза, ливневой дождь 10/5 600 м
[Cb cap Ac As]
+27.8 +25.5 87 +41 +41 опасность
перегрева
1004.5 1003.8 0.2
00 15.07 С 1 4000 м гроза, ливневой дождь 10/5 600 м
[Cb cap Ac As]
+25.6 +23.2 87 +34 +34 очень
душно
1003.7 1003.0 1
03 15.07 ЮЗ 1 4000 м слаб. дождь 9/5 600 м
[Sc As op]
+25.6 +23.2 87 +34 +36 очень
душно
1005.3 1004.6 +24.7 +33.6 3
06 15.07 ЮЗ 2 10 км {дождь} 6/3 600 м
[Sc diur, vesp Ac trans Ci sp]
+31.2 +27.0 78 +49 +61 опасность
перегрева
1005.2 1004.5
09 15.07 З 2 10 км 8/5 600 м
[Sc diur, vesp Ac trans Ci sp]
+34.2 +24.2 56 +46 +52 опасность
перегрева
1002.3 1001.6
12 15.07 Ю 2 4000 м {дождь} 9/5 600 м
[Cb cap Ac As]
+27.0 +24.4 86 +38 +38 очень
душно
1002.3 1001.6 +35.3 15
15 15.07 ЮЗ 1 4000 м слаб. морось 10/5 600 м
[Sc diur, vesp Ac As]
+27.0 +24.4 86 +38 +38 очень
душно
1005.0 1004.3 15
18 15.07 ЮЗ 1 4000 м {морось} 10/5 600 м
[Sc diur, vesp Ac As]
+27.0 +24.7 87 +38 +38 очень
душно
1004.6 1003.9 15
21 15.07 ЮЗ 1 4000 м 8/4 600 м
[Sc Ac As]
+27.0 +24.7 87 +38 +38 очень
душно
1003.9 1003.2 15
00 16.07 ЮЗ 2 4000 м 9/4 600 м
[Sc Ac As]
+26.8 +24.7 88 +38 +38 очень
душно
1003.9 1003.2 15
03 16.07 ЮЗ 1 10 км 9/1 600 м
[Sc Ac trans Ci sp]
+29.2 +26.4 85 +45 +50 опасность
перегрева
1005.1 1004.4 +25.1 +35.3 15
06 16.07 З 2 10 км 6/4 600 м
[Sc Ac trans]
+32.6 +24.3 62 +45 +55 опасность
перегрева
1004.9 1004.2
09 16.07 З 2 10 км 8/4 600 м
[Sc diur, vesp Ac As]
+35.4 +23.0 49 +45 +50 опасность
перегрева
1002.8 1002.1
12 16.07 Ю 3 4000 м гроза без осадков 10/5 600 м
[Cb cap Ac As]
+30.4 +24.4 70 +42 +43 опасность
перегрева
1002.6 1001.9 +37.0
15 16.07 Ю 1 4000 м 6/3 600 м
[Sc Ac trans Ci sp]
+29.2 +23.7 72 +40 +40 очень
душно
1003.2 1002.5
18 16.07 З 1 4000 м 6/3 600 м
[Sc Ac trans]
+29.0 +24.4 76 +41 +41 опасность
перегрева
1004.1 1003.4
21 16.07 ЮЗ 1 4000 м 3/1 600 м
[Sc Ac trans]
+28.2 +25.6 86 +42 +42 опасность
перегрева
1002.8 1002.1
00 17.07 ЮЗ 1 4000 м 4/3 600 м
[Sc Ac trans]
+27.6 +25.0 86 +40 +40 очень
душно
1002.7 1002.0
03 17.07 З 1 10 км 4/1 600 м
[Sc Ac trans]
+30.0 +23.9 70 +41 +49 опасность
перегрева
1003.7 1003.0 +26.6 +37.0
06 17.07 СЗ 2 10 км 5/4 600 м
[Sc Ac trans]
+35.0 +23.5 51 +46 +58 опасность
перегрева
1003.0 1002.3
09 17.07 ЮЗ 3 10 км 6/4 600 м
[Sc diur, vesp Ac trans]
+33.6 +25.4 62 +48 +54 опасность
перегрева
1000.8 1000.1
12 17.07 Ю 3 10 км 5/4 600 м
[Cb cap Ac trans]
+32.4 +26.2 70 +49 +49 опасность
перегрева
1000.1 999.4 +37.4
15 17.07 Ю 2 4000 м в посл. час дождь 9/6 600 м
[Sc diur, vesp Ac trans]
+28.4 +25.8 86 +42 +42 опасность
перегрева
1001.2 1000.5 0.6
18 17.07 штиль 0 4000 м {дождь} 6/4 600 м
[Sc diur, vesp Ac trans Ci sp]
+28.0 +25.1 84 +40 +40 очень
душно
1002.4 1001.7 0.6
21 17.07 Ю 1 4000 м 8/3 600 м
[Sc diur, vesp Ac trans Ci sp]
+27.6 +24.7 84 +39 +39 очень
душно
1000.9 1000.2 0.6
00 18.07 штиль 0 4000 м 6/1 600 м
[Sc Ac trans Ci sp]
+27.0 +24.1 84 +37 +37 очень
душно
1001.1 1000.4 0.6
03 18.07 З 2 10 км 9/1 600 м
[Sc Ac trans Ci sp]
+30.2 +26.2 79 +46 +50 опасность
перегрева
1001.6 1000.9 +26.7 +37.4 0.6
06 18.07 СЗ 2 10 км 10/5 600 м
[Sc diur, vesp Ac As]
+32.4 +23.4 59 +43 +46 опасность
перегрева
1001.7 1001.0
09 18.07 З 1 10 км 10/5 600 м
[Sc diur, vesp Ac As]
+35.0 +24.2 54 +47 +50 опасность
перегрева
999.2 998.5
12 18.07 С 3 10 км гроза, ливневой дождь 10/5 600 м
[Cb cap As op]
+26.8 +24.2 86 +37 +38 очень
душно
999.8 999.1 +36.4 2
15 18.07 ЮЗ 1 4000 м зарница {гроза, дождь} 10/5 600 м
[Sc diur, vesp Ac As]
+26.4 +23.7 85 +36 +36 очень
душно
1000.7 1000.0 3
18 18.07 З 1 4000 м {гроза, дождь} 6/4 600 м
[Sc diur, vesp Ac trans]
+26.2 +23.5 85 +36 +36 очень
душно
1002.5 1001.8 3
21 18.07 штиль 0 4000 м 10/5 600 м
[Sc diur, vesp Ac As]
+26.0 +23.6 87 +35 +35 очень
душно
1000.7 1000.0 3
00 19.07 З 1 4000 м 10/5 600 м
[Sc diur, vesp Ac As]
+25.4 +22.7 85 +33 +33 очень
душно
1000.5 999.8 3
03 19.07 З 1 10 км 10/5 600 м
[Sc diur, vesp Ac As]
+25.2 +22.5 85 +33 +35 очень
душно
1002.1 1001.4 +24.7 +36.4 3
06 19.07 З 1 10 км 9/4 600 м
[Sc diur, vesp Ac As]
+28.4 +25.5 84 +42 +48 опасность
перегрева
1002.0 1001.3

 

Местоположение метеостанции Бапатла (Андхра-Прадеш, Индия): широта 15.90 долгота 80.47 высота над уровнем моря 6 м.

В архиве по умолчанию представлена погода в Бапатле за последнюю неделю. Архивные данные за месяц целиком и за предыдущие месяцы, начиная с января 2011 года, Вы можете получить, выбрав интересующий диапазон дат из раскрывающегося списка и нажав кнопку "Ввод!".


*Определитесь, кто Вы:
робот инопланетянин человек

Внимание! Время в таблицах - всемирное. Для получения местного времени необходимо прибавить поправку, которая равна 5.5 ч.

Смотрите также архив погоды в соседних городах и на ближайших метеорологических станциях:

Погода в Онголе (Андхра-Прадеш, Индия) (63 км)
Погода в Ганнавараме (Андхра-Прадеш, Индия) (78 км)
Погода в Мачилипатнаме (Андхра-Прадеш, Индия) (80 км)
Погода в Нандигаме (Андхра-Прадеш, Индия) (100 км)
Погода в Рентчайнтале (Андхра-Прадеш, Индия) (122 км)
Погода в Кавали (Андхра-Прадеш, Индия) (123 км)
Погода в Нарсапере (Андхра-Прадеш, Индия) (144 км)
Погода в Кхаммаме (Телингана, Индия) (154 км)
Погода в Неллуру (Андхра-Прадеш, Индия) (170 км)
Погода в Налгонде (Телингана, Индия) (179 км)

Пояснения к столбцам:

Ветер - указаны скорость ветра в м/с - средняя за 10 мин, порывы в срок и между сроками (в фигурных скобках) и направление, откуда дует ветер: С - северный, СВ - северо-восточный, В - восточный, ЮВ - юго-восточный, Ю - южный, ЮЗ - юго-западный, З - западный, СЗ - северо-западный.
Видимость - горизонтальная дальность видимости в метрах или километрах. При видимости от 1 до 10 км при отсутствии осадков обычно наблюдается дымка, при ухудшении видимости до 1 км и менее - туман. В сухую погоду видимость может ухудшаться дымом, пылью или мглою.
Явления - указаны атмосферные явления, наблюдавшиеся в срок или в последний час перед сроком; фигурными скобками обозначены явления, наблюдавшиеся между сроками (за 1-3 часа до срока); квадратными скобками обозначены град или гололедные отложения с указанием их диаметра в мм.
Облачность - указаны через наклонную черту общая и нижняя облачность в баллах и высота нижней границы облаков в метрах; квадратными скобками обозначены формы облаков: Ci - перистые, Cs - перисто-слоистые, Cc - перисто-кучевые, Ac - высококучевые, As - высокослоистые, Sc - слоисто-кучевые, Ns - слоисто-дождевые, Cu - кучевые, Cb - кучево-дождевые. Подробнее классификацию облаков см. в Атласе облаков (PDF).
T - Температура воздуха - температура, измеренная на высоте 2 м над землей.
Td - Температура точки росы - температура, при понижении до которой содержащийся в воздухе водяной пар достигнет насыщения.
f - Относительная влажность воздуха - влажноcть воздуха, измеренная на высоте 2 м над землей.
Te - Эффективная температура - температура, которую ощущает одетый по сезону человек в тени. Характеристика душности погоды. При расчете учитывается влияние влажности воздуха и скорости ветра на теплоощущения человека.
Tes - Эффективная температура на солнце - температура, которую ощущает человек, с поправкой на солнечный нагрев. Характеристика знойности погоды. Зависит от высоты солнца над горизонтом, облачности и скорости ветра. Ночью, в пасмурную погоду, а также при ветре 12 м/с и более поправка равна нулю.
P - Атмосферное давление - приведенное к уровню моря атмосферное давление.
Po - Атмосферное давление - измеренное на уровне метеостанции атмосферное давление.
Tmin - Минимальная температура - минимум температуры воздуха на высоте 2 м над землей.
Tmax - Максимальная температура - максимум температуры воздуха на высоте 2 м над землей.
R - Количество осадков - Количество выпавших осадков за период времени, мм. При наведении курсора мыши на число - период времени, за который выпало указанное количество осадков.
R24 - Количество осадков - Количество выпавших осадков за 24 часа, мм.
S - Снежный покров - Высота снежного покрова, см. При наведении курсора мыши на число - состояние снежного покрова и степень покрытия местности в баллах.